Location: Aalen
(48.8330°N, 10.1000°E)
Time: 14:56:46
(UTC+02:00)

O/OREOS (USA 219) - Pass Details

Date: 05 April 2023
Orbit: 621 x 646 km, 72.0° (Epoch: 22 May)

Event Time Altitude Azimuth Distance (km) Brightness Sun altitude
Exits shadow 04:04:10 14° 137° (SE) 1,803 ? -24.9°
Maximum altitude 04:06:29 19° 101° (ESE) 1,515 ? -24.6°
Drops below altitude 10° 04:09:42 10° 56° (ENE) 2,032 ? -24.2°
Sets 04:12:29 0° 39° (NE) 2,941 ? -23.9°
